CZ-3C DEB, 40835

Orbit data source: Space-Track

CZ-3C DEB, 40835 is space debris in HEO originally from a launch on Sun, 31 Oct 2010 UTC launched from the Xichang Space Center, China (XSC). Debris objects in space refer to the collection of defunct objects orbiting the Earth. Examples of debris include non-operational satellites, rocket bodies, and fragments generated from explosions, collisions, or faulty payload assembly.

Loading next visibility...
Identifier
40835, 2010-057BC
Orbit
HEO
Country
Flag of CNCN / PRC
Related business
Manufacturer
CALT
Mission
Spacecraft
Bus & Motor
Unknown
Mass
Unknown
Launch date (UTC)
2010-10-31 (15 years ago)
Launch vehicle
Unknown
Launch site
Xichang Space Center, China (XSC)
Object type
Payload
Rocket body
Debris
Shape & HBR
Unknown shape, 0.2 m
Radar Cross Section
Small (<0.1 m²)

Expand to show TLE details & history
Last TLE update: 16 hours ago

TLE from 16 hours ago
0 CZ-3C DEB
1 40835U 10057BC  25346.85925329  .00000042  00000-0  16313-2 0  9998
2 40835  19.7125 179.9507 7172392  20.4409 357.7363  2.20288854  8253
Epoch: 2025-12-12T20:37Z
TLE epoch observation values (Epoch: 2025-12-12T20:37:19.484Z)
Latitude
0.00003°
Longitude
148.79276°
Altitude
874.09 km
Speed
9.692 km/s
True Right ascension
11h 59m 40s
True Declination
0° 00' 00"
Sunlit
Object was in daylight at epoch
Visualization orbit readout
Latitude
Unknown
Longitude
Unknown
Altitude
Unknown
Speed
Unknown
Apparent Right ascension
Unknown
Apparent Declination
Unknown
Sunlit
N/A
Visualization observer readout
Local Sidereal Time
11:22:40
Azimuth
Unknown
Elevation
Unknown
Doppler factor
Unknown
Orbital elements
Apogee altitude
36,474.728 km
Perigee altitude
678.021 km
Semi-major axis
24,954.511 km
Eccentricity
0.71724
Inclination
19.7125°
RAAN
179.9507°
Arg. of periapsis
20.4409°
True anomaly
340.58627°
Mean anomaly
357.7363°
Eccentric anomaly
352.05873°
Mean motion
0.55058 °/min
Orbital period
653.86 mins
BSTAR
0.0016313
Loading maneuver chart data...
Computing Atmospheric mass density...
Loading historical data...
Loading historical data...
Loading historical data...
Loading historical data...
Loading historical data...
Loading historical data...
Loading historical data...

Documentation

Showing up to 5 results
|